Athens, OH

11:55 PM EDT on September 20, 2017 (GMT -0400)
Ohio University

Weather History for KUNI - March, 2013

Change the Weather History Date:

Friday, March 15, 2013

  Actual Average (KPKB) Record (KPKB)
Temperature  
Mean Temperature 39 °F -  
Max Temperature 55 °F 52 °F 84 °F (1990)
Min Temperature 23 °F 32 °F 4 °F (1993)
Degree Days  
Heating Degree Days 26    
Moisture  
Dew Point 28 °F    
Average Humidity 63    
Maximum Humidity 93    
Minimum Humidity 42    
Precipitation  
Precipitation 0.00 in - - ()
Sea Level Pressure  
Sea Level Pressure 29.98 in    
Wind  
Wind Speed 3 mph (WSW)    
Max Wind Speed 14 mph    
Max Gust Speed 22 mph    
Visibility 10 miles    
Events Rain    
Averages and records for this station are not official NWS values.
T = Trace of Precipitation, MM = Missing Value Source: NWS Daily Summary

Daily Weather History Graph

Daily Weather History Graph

Search for Another Location

Airport or City:

Trip Planner

Search our weather history database for the weather conditions in past years. The results will help you decide how hot, cold, wet, or windy it might be!

Date:

Astronomy

Mar. 15, 2013 Rise Set
Actual Time 7:39 AM EDT 7:36 PM EDT
Civil Twilight 7:13 AM EDT 8:02 PM EDT
Nautical Twilight 6:42 AM EDT 8:33 PM EDT
Astronomical Twilight 6:10 AM EDT 9:05 PM EDT
Moon 9:31 AM EDT (3/15) 11:47 PM EDT (3/15)
Length of Visible Light 12h 49m
Length of Day
11h 56m
Waxing Crescent, 15% of the Moon is Illuminated
Mar 15
Waxing Crescent
Mar 19
First Quarter
Mar 27
Full
Apr 3
Last Quarter
Apr 10
New

Hourly Weather History & Observations

Time (EDT) Temp. Windchill Dew Point Humidity Pressure Visibility Wind Dir Wind Speed Gust Speed Precip Events Conditions
12:15 AM 27.1 °F - 18.0 °F 68% 30.17 in 10.0 mi Calm Calm - N/A   Clear
12:35 AM 26.4 °F - 18.7 °F 73% 30.15 in 10.0 mi Calm Calm - N/A   Clear
12:55 AM 25.5 °F - 20.1 °F 80% 30.16 in 10.0 mi Calm Calm - N/A   Clear
1:15 AM 24.4 °F - 18.9 °F 79% 30.16 in 10.0 mi Calm Calm - N/A   Clear
1:35 AM 25.2 °F - 18.5 °F 76% 30.16 in 10.0 mi Calm Calm - N/A   Clear
2:15 AM 23.9 °F - 18.5 °F 80% 30.15 in 10.0 mi Calm Calm - N/A   Clear
2:35 AM 23.7 °F - 18.5 °F 80% 30.14 in 10.0 mi Calm Calm - N/A   Clear
2:55 AM 23.7 °F 19.3 °F 18.9 °F 82% 30.14 in 10.0 mi West 3.5 mph - N/A   Clear
3:15 AM 23.9 °F 19.5 °F 19.0 °F 82% 30.14 in 10.0 mi West 3.5 mph - N/A   Clear
3:35 AM 23.9 °F - 18.7 °F 80% 30.13 in 10.0 mi Calm Calm - N/A   Clear
3:55 AM 25.3 °F - 18.3 °F 75% 30.12 in 10.0 mi Calm Calm - N/A   Clear
4:15 AM 23.9 °F 19.5 °F 18.7 °F 80% 30.11 in 10.0 mi West 3.5 mph - N/A   Clear
4:35 AM 23.7 °F - 18.7 °F 81% 30.10 in 10.0 mi Calm Calm - N/A   Clear
5:15 AM 25.2 °F - 18.7 °F 76% 30.10 in 10.0 mi Calm Calm - N/A   Clear
5:35 AM 24.1 °F - 19.6 °F 83% 30.09 in 10.0 mi Calm Calm - N/A   Clear
5:55 AM 23.9 °F - 18.7 °F 80% 30.09 in 10.0 mi Calm Calm - N/A   Clear
6:15 AM 24.3 °F - 18.5 °F 79% 30.10 in 10.0 mi Calm Calm - N/A   Scattered Clouds
6:35 AM 25.3 °F - 19.0 °F 77% 30.09 in 10.0 mi Calm Calm - N/A   Mostly Cloudy
6:55 AM 26.1 °F 21.9 °F 20.1 °F 78% 30.09 in 10.0 mi South 3.5 mph - N/A   Overcast
7:15 AM 29.3 °F 24.3 °F 20.1 °F 69% 30.08 in 10.0 mi South 4.6 mph - N/A   Overcast
7:35 AM 29.1 °F - 20.3 °F 70% 30.07 in 10.0 mi Calm Calm - N/A   Overcast
7:55 AM 29.3 °F 25.6 °F 20.3 °F 69% 30.06 in 10.0 mi South 3.5 mph - N/A   Mostly Cloudy
8:15 AM 29.3 °F 23.2 °F 20.7 °F 70% 30.06 in 10.0 mi SSW 5.8 mph - N/A   Scattered Clouds
8:35 AM 30.6 °F 25.8 °F 22.1 °F 71% 30.06 in 10.0 mi SSW 4.6 mph - N/A   Clear
8:55 AM 31.8 °F 25.4 °F 22.8 °F 69% 30.06 in 10.0 mi South 6.9 mph - N/A   Clear
9:15 AM 32.5 °F 28.1 °F 23.7 °F 70% 30.06 in 10.0 mi SSW 4.6 mph - N/A   Clear
9:35 AM 33.8 °F 28.6 °F 24.1 °F 68% 30.04 in 10.0 mi SSW 5.8 mph - N/A   Clear
9:55 AM 35.8 °F 31.9 °F 25.5 °F 66% 30.04 in 10.0 mi SSW 4.6 mph - N/A   Clear
10:15 AM 36.9 °F 32.2 °F 25.7 °F 64% 30.03 in 10.0 mi SW 5.8 mph - N/A   Clear
10:35 AM 38.7 °F 34.3 °F 26.6 °F 62% 30.03 in 10.0 mi SSW 5.8 mph - N/A   Clear
11:55 AM 44.6 °F 42.2 °F 28.4 °F 53% 29.99 in 10.0 mi SSW 4.6 mph - N/A   Clear
12:15 PM 45.5 °F 41.3 °F 28.9 °F 52% 29.97 in 10.0 mi SSW 8.1 mph - N/A   Clear
12:35 PM 47.1 °F - 29.3 °F 50% 29.96 in 10.0 mi WSW 3.5 mph - N/A   Clear
12:55 PM 48.2 °F - 29.7 °F 49% 29.94 in 10.0 mi WSW 10.4 mph - N/A   Clear
1:15 PM 49.8 °F - 30.0 °F 47% 29.93 in 10.0 mi SSW 5.8 mph - N/A   Clear
1:35 PM 50.2 °F - 29.7 °F 45% 29.93 in 10.0 mi West 6.9 mph - N/A   Clear
1:55 PM 50.9 °F - 30.2 °F 45% 29.92 in 10.0 mi WSW 6.9 mph - N/A   Clear
2:15 PM 52.5 °F - 30.4 °F 43% 29.91 in 10.0 mi SW 6.9 mph - N/A   Clear
2:35 PM 52.7 °F - 31.1 °F 44% 29.91 in 10.0 mi WSW 11.5 mph - N/A   Clear
2:55 PM 52.9 °F - 31.1 °F 43% 29.90 in 10.0 mi WSW 9.2 mph 17.3 mph N/A   Clear
3:15 PM 53.8 °F - 31.8 °F 43% 29.89 in 10.0 mi WSW 9.2 mph - N/A   Clear
3:35 PM 53.6 °F - 32.0 °F 44% 29.88 in 10.0 mi West 12.7 mph 17.3 mph N/A   Clear
3:55 PM 53.6 °F - 32.0 °F 44% 29.88 in 10.0 mi West 12.7 mph - N/A   Clear
4:15 PM 54.1 °F - 32.2 °F 43% 29.87 in 10.0 mi WSW 13.8 mph - N/A   Clear
4:35 PM 55.0 °F - 32.0 °F 42% 29.86 in 10.0 mi SW 10.4 mph - N/A   Clear
4:55 PM 55.2 °F - 32.2 °F 42% 29.86 in 10.0 mi WSW 9.2 mph 16.1 mph N/A   Clear
5:15 PM 55.4 °F - 33.3 °F 43% 29.85 in 10.0 mi West 13.8 mph 21.9 mph N/A   Clear
5:35 PM 55.4 °F - 32.7 °F 42% 29.85 in 10.0 mi West 11.5 mph 17.3 mph N/A   Clear
5:55 PM 54.7 °F - 33.3 °F 44% 29.85 in 10.0 mi WSW 10.4 mph 17.3 mph N/A   Clear
6:15 PM 54.1 °F - 33.1 °F 45% 29.85 in 10.0 mi WSW 10.4 mph 16.1 mph N/A   Clear
6:35 PM 54.0 °F - 33.4 °F 46% 29.86 in 10.0 mi West 10.4 mph - N/A   Mostly Cloudy
6:55 PM 53.4 °F - 33.3 °F 46% 29.86 in 10.0 mi West 8.1 mph - N/A   Overcast
7:15 PM 52.5 °F - 33.4 °F 48% 29.86 in 10.0 mi West 10.4 mph - N/A   Mostly Cloudy
7:35 PM 51.3 °F - 34.2 °F 52% 29.87 in 10.0 mi WSW 8.1 mph - N/A   Scattered Clouds
7:55 PM 51.1 °F - 33.6 °F 51% 29.88 in 10.0 mi West 6.9 mph - N/A   Clear
8:15 PM 49.5 °F - 33.8 °F 55% 29.88 in 10.0 mi West 5.8 mph - N/A   Clear
8:35 PM 47.8 °F - 34.2 °F 59% 29.88 in 10.0 mi West 5.8 mph - N/A   Clear
8:55 PM 47.5 °F - 34.0 °F 59% 29.88 in 10.0 mi West 4.6 mph - N/A   Scattered Clouds
9:15 PM 48.4 °F - 34.3 °F 58% 29.88 in 10.0 mi West 4.6 mph - N/A   Overcast
9:35 PM 49.3 °F - 34.5 °F 57% 29.89 in 10.0 mi WNW 5.8 mph - N/A   Overcast
9:55 PM 49.1 °F - 34.3 °F 57% 29.89 in 10.0 mi Calm Calm - N/A   Overcast
10:15 PM 48.7 °F - 35.8 °F 61% 29.88 in 10.0 mi Calm Calm - N/A Rain Light Rain
10:35 PM 46.6 °F - 39.0 °F 75% 29.87 in 10.0 mi Calm Calm - N/A Rain Rain
10:55 PM 45.0 °F - 40.5 °F 84% 29.86 in 10.0 mi Calm Calm - N/A Rain Light Rain
11:15 PM 43.7 °F 41.1 °F 40.6 °F 89% 29.88 in 10.0 mi West 4.6 mph - N/A Rain Light Rain
11:35 PM 43.7 °F 41.1 °F 41.2 °F 91% 29.89 in 10.0 mi WSW 4.6 mph - N/A   Drizzle
11:55 PM 43.3 °F - 41.5 °F 93% 29.88 in 10.0 mi Calm Calm - N/A Rain Light Rain